DW6162 Weather Reports


Display with metric or nautical units.
time (UTC)temp
F
wind
direction
speed
MPH
gust
MPH
rain 1hr
in
rain 24hr
in
rain mn
in
humidity
%
barometer
mb
20260509063051 44 165 1.0 3.0 0.02 0.27 0.13 98 1010.1
20260509062151 44 160 0.0 3.0 0.02 0.27 0.13 97 1010.4
20260509061505 44 151 0.0 2.0 0.03 0.27 0.13 97 1011.9
20260509061252 44 163 1.0 2.0 0.03 0.27 0.13 97 1010.5
20260509060351 44 165 1.0 3.0 0.05 0.27 0.13 97 1010.6
20260509060104 44 185 0.0 3.0 0.05 0.27 0.13 97 1012.1
20260509055451 44 153 0.0 2.0 0.06 0.27 0.13 97 1010.6
20260509054550 44 150 0.0 1.0 0.06 0.26 0.12 97 1010.8
20260509054501 44 143 0.0 1.0 0.06 0.26 0.12 97 1012.3
20260509053650 44 135 0.0 1.0 0.07 0.26 0.12 97 1011.0
20260509053136 44 135 0.0 2.0 0.06 0.25 0.11 97 1012.5
20260509052752 44 140 0.0 1.0 0.06 0.25 0.11 97 1011.0
20260509051503 44 146 0.0 1.0 0.07 0.24 0.10 97 1012.7
20260509050951 44 0 0.0 0.0 0.07 0.23 0.09 97 1011.3
20260509050101 44 148 0.0 1.0 0.07 0.22 0.08 97 1012.8
20260509050051 44 133 0.0 1.0 0.08 0.22 0.08 97 1011.2
20260509045151 44 140 0.0 1.0 0.08 0.21 0.07 97 1011.3
20260509044502 44 149 0.0 2.0 0.08 0.20 0.06 97 1012.8
20260509044251 44 154 0.0 1.0 0.08 0.20 0.06 97 1011.3
20260509043350 44 153 0.0 1.0 0.07 0.19 0.05 97 1011.2
20260509043109 44 155 0.0 1.0 0.07 0.19 0.05 97 1012.7
20260509042450 44 140 0.0 1.0 0.06 0.18 0.04 97 1011.2
20260509041551 45 139 0.0 1.0 0.06 0.17 0.03 97 1011.2
20260509041502 44 139 0.0 1.0 0.06 0.17 0.03 97 1012.7
20260509040128 44 132 0.0 2.0 0.04 0.15 0.01 97 1013.0
20260509035751 45 149 0.0 2.0 0.03 0.14 0.14 97 1011.3
20260509034850 45 197 0.0 4.0 0.03 0.13 0.13 97 1011.4
20260509034502 44 148 0.0 4.0 0.02 0.12 0.12 97 1013.0
20260509033950 45 162 0.0 4.0 0.03 0.12 0.12 96 1011.3
20260509033102 44 128 0.0 1.0 0.04 0.12 0.12 96 1012.6
20260509033050 45 128 0.0 1.0 0.05 0.12 0.12 96 1011.1
20260509032151 45 128 0.0 1.0 0.05 0.11 0.11 96 1011.1
20260509031503 44 128 0.0 1.0 0.06 0.11 0.11 96 1012.8
20260509031250 45 132 0.0 1.0 0.06 0.11 0.11 96 1011.3
20260509030351 45 143 0.0 2.0 0.06 0.11 0.11 96 1011.3
20260509030104 44 151 0.0 2.0 0.06 0.11 0.11 96 1012.9
20260509025450 45 144 1.0 2.0 0.06 0.10 0.10 96 1011.4
20260509024550 45 150 1.0 3.0 0.06 0.10 0.10 96 1011.5
20260509024502 44 158 1.0 3.0 0.06 0.10 0.10 96 1013.1
20260509023650 45 146 0.0 2.0 0.05 0.09 0.09 96 1011.7
20260509023103 44 143 0.0 1.0 0.03 0.07 0.07 96 1013.3
20260509022750 45 0 0.0 0.0 0.03 0.07 0.07 96 1011.8
20260509021850 45 0 0.0 0.0 0.02 0.06 0.06 95 1011.5
20260509021503 44 144 0.0 0.0 0.01 0.05 0.05 95 1013.2
20260509020951 45 0 0.0 0.0 0.01 0.05 0.05 95 1011.7
20260509020050 45 0 0.0 0.0 0.01 0.05 0.05 95 1011.6
20260509015151 45 0 0.0 0.0 0.00 0.05 0.04 95 1011.3
20260509014503 44 144 0.0 1.0 0.00 0.09 0.04 95 1012.9
20260509014251 45 141 0.0 1.0 0.00 0.06 0.04 94 1011.1
20260509013111 45 126 0.0 1.0 0.02 0.09 0.04 94 1012.8
20260509012450 45 132 0.0 1.0 0.02 0.10 0.04 94 1011.0
20260509011503 45 148 0.0 2.0 0.02 0.09 0.04 93 1012.4
20260509010651 45 137 1.0 2.0 0.02 0.10 0.04 93 1010.6
20260509010105 45 106 1.0 3.0 0.02 0.09 0.04 93 1012.2
20260509005750 46 148 2.0 4.0 0.02 0.10 0.04 93 1010.6
20260509004850 46 148 3.0 5.0 0.02 0.10 0.04 92 1010.5
20260509004505 46 142 2.0 5.0 0.02 0.10 0.04 91 1012.0
20260509003950 47 136 3.0 7.0 0.01 0.09 0.03 90 1010.5
20260509003105 48 154 1.0 4.0 0.00 0.08 0.02 88 1011.9
20260509003051 48 142 1.0 4.0 0.00 0.08 0.02 88 1010.5
20260509002150 48 144 0.0 2.0 0.00 0.08 0.02 86 1010.4
20260509001505 48 143 0.0 1.0 0.00 0.08 0.02 85 1011.7
20260509001250 49 132 0.0 1.0 0.00 0.08 0.02 85 1010.2
20260508235452 49 133 0.0 2.0 0.00 0.08 0.02 83 1010.0
20260508234506 49 173 0.0 2.0 0.00 0.08 0.02 82 1011.5
20260508233120 49 100 1.0 4.0 0.00 0.08 0.02 82 1011.4
20260508232750 49 105 1.0 2.0 0.00 0.08 0.02 82 1009.9
20260508231850 50 109 2.0 6.0 0.00 0.08 0.02 80 1009.7
20260508231503 49 123 1.0 5.0 0.00 0.08 0.02 80 1011.2
20260508230951 50 116 2.0 5.0 0.00 0.08 0.02 79 1009.6
20260508230107 50 135 1.0 4.0 0.00 0.08 0.02 79 1010.9
20260508224503 50 75 1.0 4.0 0.00 0.08 0.02 77 1011.1
20260508224250 51 140 2.0 8.0 0.00 0.08 0.02 77 1009.5
20260508223350 51 160 4.0 10.0 0.00 0.08 0.02 76 1009.3
20260508223102 51 200 4.0 10.0 0.00 0.08 0.02 74 1010.8
20260508222451 53 156 4.0 10.0 0.00 0.08 0.02 71 1009.2
20260508221550 55 128 1.0 3.0 0.00 0.08 0.02 59 1009.1
20260508221503 54 128 1.0 3.0 0.00 0.08 0.02 59 1010.7
20260508220650 55 326 1.0 4.0 0.00 0.08 0.02 57 1009.1
20260508220103 55 214 1.0 5.0 0.00 0.08 0.02 57 1010.6
20260508214850 56 159 3.0 6.0 0.00 0.08 0.02 58 1009.1
20260508214502 55 172 3.0 6.0 0.00 0.08 0.02 59 1010.6
20260508213950 56 169 2.0 6.0 0.00 0.08 0.02 58 1009.1
20260508213103 55 153 1.0 5.0 0.00 0.08 0.02 62 1010.7
20260508212150 54 354 1.0 3.0 0.00 0.08 0.02 62 1009.2
20260508211502 53 311 1.0 5.0 0.00 0.08 0.02 63 1010.8
20260508211250 54 331 2.0 5.0 0.00 0.08 0.02 63 1009.2
20260508210351 53 347 2.0 5.0 0.00 0.08 0.02 63 1009.2
20260508210108 53 322 2.0 5.0 0.00 0.08 0.02 61 1010.8
20260508205450 54 333 2.0 4.0 0.00 0.08 0.02 62 1009.3
20260508204550 54 345 2.0 10.0 0.00 0.08 0.02 61 1009.3
20260508204506 53 191 1.0 9.0 0.00 0.08 0.02 61 1010.9
20260508203650 54 355 1.0 3.0 0.00 0.08 0.02 68 1009.4
20260508203106 54 98 0.0 4.0 0.00 0.08 0.02 66 1011.0
20260508201850 54 150 1.0 3.0 0.00 0.08 0.02 66 1009.7
20260508201502 53 153 0.0 3.0 0.00 0.08 0.02 65 1011.2
20260508200950 54 141 2.0 5.0 0.00 0.08 0.02 66 1009.7
20260508200103 53 111 2.0 5.0 0.00 0.08 0.02 69 1011.4
20260508200051 54 149 2.0 5.0 0.00 0.08 0.02 69 1009.9
20260508195151 52 55 1.0 3.0 0.00 0.08 0.02 76 1010.1
20260508194503 51 25 0.0 4.0 0.00 0.08 0.02 76 1011.6
20260508194250 51 136 2.0 4.0 0.00 0.08 0.02 74 1010.0
20260508193350 52 134 3.0 5.0 0.00 0.08 0.02 76 1010.1
20260508193116 51 135 2.0 5.0 0.00 0.08 0.02 74 1011.7
20260508192450 51 163 3.0 9.0 0.00 0.08 0.02 71 1010.2
20260508191551 52 207 3.0 7.0 0.00 0.08 0.02 70 1010.0
20260508191503 52 158 1.0 8.0 0.00 0.08 0.02 71 1011.6
20260508190650 52 344 3.0 13.0 0.00 0.08 0.02 66 1010.3
20260508185750 52 336 3.0 6.0 0.00 0.08 0.02 66 1010.4
20260508184503 52 304 3.0 8.0 0.00 0.08 0.02 67 1012.0
20260508183950 52 336 5.0 9.0 0.00 0.08 0.02 65 1010.4
20260508183106 50 328 2.0 8.0 0.00 0.08 0.02 68 1012.1
20260508183050 51 329 4.0 9.0 0.00 0.08 0.02 68 1010.4
20260508182150 51 325 4.0 9.0 0.00 0.08 0.02 69 1010.5
20260508181510 50 336 5.0 14.0 0.00 0.08 0.02 68 1012.1
20260508181250 51 330 5.0 14.0 0.00 0.08 0.02 69 1010.5
20260508180350 50 329 4.0 8.0 0.00 0.08 0.02 69 1010.7
20260508180105 50 323 3.0 9.0 0.00 0.08 0.02 68 1012.3
20260508175450 51 334 5.0 12.0 0.00 0.08 0.02 69 1010.9
20260508174550 51 327 5.0 10.0 0.00 0.08 0.02 68 1010.8
20260508174503 50 336 5.0 10.0 0.00 0.08 0.02 67 1012.4
20260508173103 50 85 3.0 10.0 0.00 0.08 0.02 72 1012.4
20260508172750 50 332 5.0 9.0 0.00 0.08 0.02 69 1010.9
20260508171850 50 346 4.0 8.0 0.00 0.08 0.02 71 1011.2
20260508171503 49 323 3.0 8.0 0.00 0.08 0.02 73 1012.7
20260508170957 50 328 4.0 8.0 0.00 0.08 0.02 71 1011.3
20260508164506 48 4 2.0 9.0 0.00 0.08 0.02 80 1013.0
20260508163350 47 330 3.0 10.0 0.00 0.08 0.02 81 1011.3
20260508163103 46 293 3.0 9.0 0.00 0.08 0.02 79 1013.1
20260508162450 46 327 4.0 7.0 0.00 0.08 0.02 80 1011.7
20260508161550 46 322 4.0 9.0 0.00 0.08 0.02 81 1011.7
20260508161505 46 5 4.0 9.0 0.00 0.08 0.02 80 1013.3
20260508155750 44 341 3.0 8.0 0.00 0.08 0.02 88 1012.0
20260508154850 44 317 1.0 6.0 0.01 0.08 0.02 90 1012.1
20260508153950 43 340 2.0 6.0 0.01 0.08 0.02 93 1012.0
20260508153103 42 115 0.0 3.0 0.01 0.08 0.02 93 1013.6
20260508153050 42 133 1.0 3.0 0.01 0.08 0.02 93 1012.0
20260508152150 42 144 1.0 5.0 0.01 0.08 0.02 92 1011.9
20260508151502 42 120 1.0 2.0 0.01 0.08 0.02 92 1013.4
20260508151250 43 191 1.0 2.0 0.01 0.08 0.02 92 1011.8
20260508150103 42 202 0.0 2.0 0.01 0.08 0.02 94 1013.2
20260508145450 42 129 1.0 3.0 0.01 0.08 0.02 93 1011.6
20260508144550 42 123 0.0 3.0 0.00 0.07 0.01 92 1011.8
20260508144503 41 143 0.0 2.0 0.00 0.07 0.01 92 1013.4
20260508143650 42 103 0.0 2.0 0.00 0.07 0.01 92 1011.6
20260508143104 42 120 0.0 3.0 0.00 0.07 0.01 90 1013.1
20260508142750 42 125 1.0 2.0 0.00 0.07 0.01 90 1011.5
20260508141850 43 142 2.0 4.0 0.00 0.07 0.01 90 1011.3
20260508141503 43 144 1.0 5.0 0.00 0.07 0.01 89 1012.8
20260508140950 43 152 2.0 5.0 0.00 0.07 0.01 89 1011.2
20260508140035 43 151 1.0 6.0 0.00 0.07 0.01 90 1012.9
20260508135644 40 157 1.0 2.0 0.00 0.07 0.01 93 1011.4
20260508134549 39 134 1.0 1.0 0.00 0.07 0.01 93 1011.4
20260508134540 42 188 0.0 4.0 0.00 0.07 0.01 91 1013.0
20260508133709 38 131 0.0 2.0 0.00 0.07 0.01 93 1011.4
20260508133152 41 170 1.0 3.0 0.00 0.07 0.01 91 1013.0
20260508132857 38 123 1.0 2.0 0.00 0.07 0.01 93 1011.3
20260508131635 38 123 1.0 2.0 0.00 0.07 0.01 93 1011.3
20260508131531 40 235 1.0 5.0 0.00 0.07 0.01 92 1012.9
20260508130726 38 323 1.0 1.0 0.00 0.07 0.01 93 1011.3
20260508130113 39 184 1.0 3.0 0.00 0.07 0.01 93 1013.0
20260508125834 38 149 1.0 3.0 0.00 0.07 0.01 96 1011.3
20260508124903 38 149 1.0 3.0 0.00 0.07 0.01 96 1011.3
20260508124528 38 128 0.0 4.0 0.00 0.07 0.01 93 1013.0
20260508124132 38 149 1.0 3.0 0.00 0.07 0.01 96 1011.3
20260508123925 38 149 1.0 3.0 0.00 0.07 0.01 96 1011.3
20260508123007 38 200 0.0 3.0 0.00 0.07 0.01 95 1012.7
20260508122355 34 0 0.0 0.0 0.00 0.07 0.01 97 1010.9
20260508121526 36 137 1.0 4.0 0.00 0.07 0.01 97 1012.6
20260508121416 33 154 0.0 1.0 0.01 0.07 0.01 96 1011.0
20260508120416 32 0 0.0 0.0 0.01 0.07 0.01 96 1010.9
20260508120120 34 145 0.0 1.0 0.00 0.07 0.01 97 1012.9
20260508115717 32 136 0.0 1.0 0.01 0.07 0.01 96 1011.0
20260508114646 33 136 0.0 1.0 0.01 0.07 0.01 96 1010.8
20260508114542 33 164 0.0 1.0 0.01 0.07 0.01 96 1012.8
20260508113703 33 115 0.0 1.0 0.01 0.07 0.01 96 1010.8
20260508113152 32 144 0.0 1.0 0.01 0.07 0.01 96 1012.8
20260508112854 33 0 0.0 0.0 0.01 0.07 0.01 96 1011.0
20260508112540 33 202 1.0 2.0 0.01 0.07 0.01 96 1011.1
20260508111513 32 158 0.0 1.0 0.01 0.07 0.01 96 1013.1
20260508111137 33 202 0.0 2.0 0.00 0.06 0.00 96 1011.3
20260508110433 33 0 0.0 0.0 0.00 0.06 0.00 96 1011.1
20260508105406 33 0 0.0 0.0 0.00 0.06 0.00 96 1011.0
20260508104613 33 152 0.0 1.0 0.00 0.06 0.00 96 1012.8
20260508104452 33 150 0.0 1.0 0.00 0.06 0.00 96 1010.9
20260508102513 33 0 0.0 0.0 0.00 0.06 0.00 96 1010.6
20260508101722 33 185 1.0 2.0 0.00 0.06 0.00 95 1010.5
20260508101513 33 150 0.0 1.0 0.00 0.06 0.00 96 1012.3
20260508100713 33 173 1.0 2.0 0.00 0.06 0.00 95 1010.5
20260508100012 33 150 0.0 1.0 0.00 0.06 0.00 96 1012.5
20260508095817 33 173 0.0 1.0 0.00 0.06 0.00 95 1010.9
20260508095338 33 172 0.0 1.0 0.00 0.06 0.00 95 1010.9
20260508094505 32 151 0.0 3.0 0.00 0.06 0.00 96 1012.5
20260508093311 34 171 0.0 1.0 0.00 0.06 0.00 94 1010.9
20260508093003 33 174 0.0 2.0 0.00 0.06 0.00 95 1012.6
20260508092312 34 171 0.0 1.0 0.00 0.06 0.00 94 1010.9
20260508091621 33 172 0.0 1.0 0.00 0.06 0.00 95 1012.6
20260508091331 34 14 1.0 2.0 0.00 0.06 0.00 94 1011.0
20260508085506 36 0 0.0 0.0 0.00 0.06 0.00 93 1011.0
20260508084628 35 321 1.0 1.0 0.00 0.06 0.00 95 1010.8
20260508084506 34 8 0.0 1.0 0.00 0.06 0.00 93 1012.5
20260508083717 34 304 0.0 1.0 0.00 0.06 0.00 95 1010.7
20260508083118 35 281 0.0 1.0 0.00 0.06 0.00 93 1012.6
20260508082824 34 6 0.0 1.0 0.00 0.06 0.00 94 1010.9
20260508082456 34 6 0.0 1.0 0.00 0.06 0.00 95 1010.9
20260508081520 35 281 0.0 3.0 0.00 0.06 0.00 95 1012.5
20260508080454 34 190 1.0 3.0 0.00 0.06 0.00 95 1010.8
20260508080108 33 294 0.0 1.0 0.00 0.06 0.00 95 1012.4
20260508075351 34 174 1.0 3.0 0.00 0.06 0.00 94 1010.8
20260508074606 34 6 0.0 2.0 0.00 0.06 0.00 95 1012.5
20260508074548 34 161 0.0 1.0 0.00 0.06 0.00 94 1010.8
20260508073620 34 120 0.0 1.0 0.00 0.06 0.00 94 1010.8
20260508073047 34 200 0.0 1.0 0.00 0.06 0.00 95 1012.5
20260508071621 34 112 0.0 1.0 0.00 0.06 0.00 94 1012.6
20260508071601 35 0 0.0 0.0 0.00 0.06 0.00 94 1010.9
20260508070855 35 0 0.0 0.0 0.00 0.06 0.00 94 1011.0
20260508070601 35 0 0.0 0.0 0.00 0.06 0.00 94 1011.0
20260508070142 34 136 0.0 2.0 0.00 0.06 0.00 94 1012.6
20260508065618 35 0 0.0 0.0 0.00 0.06 0.00 93 1010.9
20260508064608 34 246 0.0 1.0 0.00 0.06 0.00 94 1012.6
20260508063527 36 133 0.0 2.0 0.00 0.06 0.00 92 1011.1